,,,PA_Meas_PMT16A,,PR_Meas_QMR101_102,,RH_Meas_QMH101,,SR_Meas_QMS101,,TA_Meas_QMH101,,GenWind,,GenWind,
date,time,status,PA,status,PR,status,RH,status,SR,status,TA,status,DirAvg,status,SpdAvg,
2011-04-26, 00:00:04,VALID,999.581,VALID,0,VALID,90.9909,VALID,0.112286,VALID,24.7142,VALID,100,VALID,0,
2011-04-26, 00:01:04,VALID,999.534,VALID,0,VALID,90.9146,VALID,0.112286,VALID,24.7142,VALID,100,VALID,0,
2011-04-26, 00:02:04,VALID,999.546,VALID,0,VALID,90.823,VALID,0.112286,VALID,24.6946,VALID,100,VALID,0,
2011-04-26, 00:03:04,VALID,999.518,VALID,0,VALID,90.762,VALID,0.112286,VALID,24.6946,VALID,100,VALID,0,
2011-04-26, 00:04:04,VALID,999.51,VALID,0,VALID,90.678,VALID,0.112286,VALID,24.6946,VALID,100,VALID,0,
2011-04-26, 00:05:04,VALID,999.489,VALID,0,VALID,90.6017,VALID,0.112286,VALID,24.6733,VALID,100,VALID,0,
2011-04-26, 00:06:04,VALID,999.46,VALID,0,VALID,90.5636,VALID,0.112286,VALID,24.6946,VALID,116,VALID,0,
2011-04-26, 00:07:04,VALID,999.42,VALID,0,VALID,90.5407,VALID,0,VALID,24.6946,VALID,105,VALID,0.478906,
2011-04-26, 00:08:04,VALID,999.379,VALID,0,VALID,90.5254,VALID,0.112286,VALID,24.6751,VALID,105,VALID,0,
2011-04-26, 00:09:04,VALID,999.371,VALID,0,VALID,90.4949,VALID,0.112286,VALID,24.6946,VALID,105,VALID,0,
2011-04-26, 00:10:04,VALID,999.338,VALID,0,VALID,90.4949,VALID,0.112286,VALID,24.6751,VALID,106,VALID,0,
2011-04-26, 00:11:04,VALID,999.292,VALID,0,VALID,90.5102,VALID,0,VALID,24.6556,VALID,108,VALID,0,
2011-04-26, 00:12:04,VALID,999.288,VALID,0,VALID,90.4797,VALID,0.112286,VALID,24.6556,VALID,118,VALID,0,
2011-04-26, 00:13:04,VALID,999.257,VALID,0,VALID,90.4415,VALID,0,VALID,24.6342,VALID,118,VALID,0,
2011-04-26, 00:14:04,VALID,999.233,VALID,0,VALID,90.4339,VALID,0,VALID,24.6556,VALID,155,VALID,0,
2011-04-26, 00:15:04,VALID,999.198,VALID,0,VALID,90.4568,VALID,0,VALID,24.677,VALID,155,VALID,0,
2011-04-26, 00:16:04,VALID,999.159,VALID,0,VALID,90.3881,VALID,0,VALID,24.6984,VALID,155,VALID,0,
2011-04-26, 00:17:04,VALID,999.167,VALID,0,VALID,90.266,VALID,0,VALID,24.677,VALID,155,VALID,0,
2011-04-26, 00:18:04,VALID,999.142,VALID,0,VALID,90.2126,VALID,0,VALID,24.6965,VALID,155,VALID,0,
2011-04-26, 00:19:04,VALID,999.129,VALID,0,VALID,90.2279,VALID,0,VALID,24.6965,VALID,155,VALID,0,
2011-04-26, 00:20:04,VALID,999.11,VALID,0,VALID,90.2813,VALID,0,VALID,24.677,VALID,155,VALID,0,
2011-04-26, 00:21:04,VALID,999.083,VALID,0,VALID,90.3423,VALID,0,VALID,24.6556,VALID,155,VALID,0,
2011-04-26, 00:22:04,VALID,999.059,VALID,0,VALID,90.3423,VALID,0,VALID,24.6575,VALID,155,VALID,0,
2011-04-26, 00:23:04,VALID,999.053,VALID,0,VALID,90.2737,VALID,0,VALID,24.6575,VALID,157,VALID,0.492969,
2011-04-26, 00:24:04,VALID,999.007,VALID,0,VALID,90.1897,VALID,0,VALID,24.6575,VALID,155,VALID,0.953906,
2011-04-26, 00:25:04,VALID,999.003,VALID,0,VALID,89.9837,VALID,0,VALID,24.6556,VALID,138,VALID,0.640625,
2011-04-26, 00:26:04,VALID,998.993,VALID,0,VALID,89.793,VALID,0,VALID,24.6965,VALID,138,VALID,0.669922,
2011-04-26, 00:27:04,VALID,998.964,VALID,0,VALID,89.6786,VALID,0,VALID,24.6965,VALID,138,VALID,0.460156,
2011-04-26, 00:28:04,VALID,998.951,VALID,0,VALID,89.5489,VALID,0,VALID,24.7356,VALID,138,VALID,0.258984,
2011-04-26, 00:29:04,VALID,998.936,VALID,0,VALID,89.4878,VALID,0,VALID,24.7356,VALID,138,VALID,0,
2011-04-26, 00:30:04,VALID,998.909,VALID,0,VALID,89.4191,VALID,0,VALID,24.716,VALID,138,VALID,0,
2011-04-26, 00:31:04,VALID,998.868,VALID,0,VALID,89.4573,VALID,0,VALID,24.716,VALID,138,VALID,0,
2011-04-26, 00:32:04,VALID,998.883,VALID,0,VALID,89.4726,VALID,0,VALID,24.7356,VALID,138,VALID,0.207422,
2011-04-26, 00:33:04,VALID,998.835,VALID,0,VALID,89.5107,VALID,0,VALID,24.716,VALID,138,VALID,0.316406,
2011-04-26, 00:34:04,VALID,998.821,VALID,0,VALID,89.4878,VALID,0,VALID,24.7356,VALID,138,VALID,0,
2011-04-26, 00:35:04,VALID,998.793,VALID,0,VALID,89.442,VALID,0,VALID,24.7356,VALID,138,VALID,0,
2011-04-26, 00:36:04,VALID,998.768,VALID,0,VALID,89.4191,VALID,0,VALID,24.716,VALID,138,VALID,0,
2011-04-26, 00:37:04,VALID,998.724,VALID,0,VALID,89.442,VALID,0,VALID,24.716,VALID,138,VALID,0,
2011-04-26, 00:38:04,VALID,998.683,VALID,0,VALID,89.4497,VALID,0,VALID,24.6965,VALID,138,VALID,0,
2011-04-26, 00:39:04,VALID,998.69,VALID,0,VALID,89.4878,VALID,0,VALID,24.677,VALID,138,VALID,0,
2011-04-26, 00:40:04,VALID,998.67,VALID,0,VALID,89.5336,VALID,0,VALID,24.638,VALID,138,VALID,0,
2011-04-26, 00:41:04,VALID,998.665,VALID,0,VALID,89.6633,VALID,0,VALID,24.6184,VALID,138,VALID,0,
2011-04-26, 00:42:04,VALID,998.641,VALID,0,VALID,89.7701,VALID,0,VALID,24.5989,VALID,138,VALID,0,
2011-04-26, 00:43:04,VALID,998.637,VALID,0,VALID,89.8922,VALID,0,VALID,24.5989,VALID,138,VALID,0,
2011-04-26, 00:44:04,VALID,998.625,VALID,0,VALID,90.0371,VALID,0,VALID,24.558,VALID,138,VALID,0,
2011-04-26, 00:45:04,VALID,998.609,VALID,0,VALID,90.1897,VALID,0,VALID,24.5599,VALID,138,VALID,0,
2011-04-26, 00:46:04,VALID,998.625,VALID,0,VALID,90.3194,VALID,0,VALID,24.5404,VALID,138,VALID,0,
2011-04-26, 00:47:04,VALID,998.669,VALID,0,VALID,90.4491,VALID,0,VALID,24.5209,VALID,138,VALID,0,
2011-04-26, 00:48:04,VALID,998.662,VALID,0,VALID,90.5483,VALID,0,VALID,24.4818,VALID,138,VALID,0,
2011-04-26, 00:49:04,VALID,998.706,VALID,0,VALID,90.6094,VALID,0,VALID,24.4818,VALID,138,VALID,0,
2011-04-26, 00:50:04,VALID,998.754,VALID,0,VALID,90.6933,VALID,0,VALID,24.4623,VALID,138,VALID,0,
2011-04-26, 00:51:04,VALID,998.776,VALID,0,VALID,90.8383,VALID,0,VALID,24.4428,VALID,138,VALID,0,
2011-04-26, 00:52:04,VALID,998.833,VALID,0,VALID,90.9374,VALID,0,VALID,24.4233,VALID,138,VALID,0,
2011-04-26, 00:53:04,VALID,998.839,VALID,0,VALID,91.0443,VALID,0,VALID,24.4428,VALID,138,VALID,0,
2011-04-26, 00:54:04,VALID,998.845,VALID,0,VALID,91.0443,VALID,0,VALID,24.4233,VALID,138,VALID,0,
2011-04-26, 00:55:04,VALID,998.878,VALID,0,VALID,91.0595,VALID,0,VALID,24.4233,VALID,138,VALID,0,
2011-04-26, 00:56:04,VALID,998.874,VALID,0,VALID,91.1206,VALID,0,VALID,24.4233,VALID,138,VALID,0,
2011-04-26, 00:57:04,VALID,998.893,VALID,0,VALID,91.1358,VALID,0,VALID,24.4037,VALID,138,VALID,0,
2011-04-26, 00:58:04,VALID,998.917,VALID,0,VALID,91.174,VALID,0,VALID,24.4428,VALID,138,VALID,0,
2011-04-26, 00:59:04,VALID,998.903,VALID,0,VALID,91.1816,VALID,0,VALID,24.4623,VALID,138,VALID,0,
2011-04-26, 01:00:04,VALID,998.931,VALID,0,VALID,91.1816,VALID,0,VALID,24.4623,VALID,138,VALID,0,
2011-04-26, 01:01:04,VALID,998.962,VALID,0,VALID,91.1816,VALID,0,VALID,24.4837,VALID,138,VALID,0,
2011-04-26, 01:02:04,VALID,998.961,VALID,0,VALID,91.1968,VALID,0,VALID,24.4623,VALID,138,VALID,0,
2011-04-26, 01:03:04,VALID,998.978,VALID,0,VALID,91.235,VALID,0,VALID,24.4604,VALID,138,VALID,0,
2011-04-26, 01:04:04,VALID,998.938,VALID,0,VALID,91.2884,VALID,0,VALID,24.4818,VALID,138,VALID,0,
2011-04-26, 01:05:04,VALID,998.926,VALID,0,VALID,91.3342,VALID,0,VALID,24.4818,VALID,138,VALID,0,
2011-04-26, 01:06:04,VALID,998.924,VALID,0,VALID,91.4334,VALID,0,VALID,24.4818,VALID,138,VALID,0,
2011-04-26, 01:07:04,VALID,998.876,VALID,0,VALID,91.502,VALID,0,VALID,24.4818,VALID,136,VALID,0,
2011-04-26, 01:08:04,VALID,998.833,VALID,0,VALID,91.5631,VALID,0,VALID,24.5013,VALID,115,VALID,0,
2011-04-26, 01:09:04,VALID,998.804,VALID,0,VALID,91.6088,VALID,0,VALID,24.5013,VALID,115,VALID,0,
2011-04-26, 01:10:04,VALID,998.792,VALID,0,VALID,91.6546,VALID,0,VALID,24.5013,VALID,115,VALID,0,
2011-04-26, 01:11:04,VALID,998.742,VALID,0,VALID,91.647,VALID,0,VALID,24.5013,VALID,106,VALID,0,
2011-04-26, 01:12:04,VALID,998.706,VALID,0,VALID,91.647,VALID,0,VALID,24.4818,VALID,106,VALID,0,
2011-04-26, 01:13:04,VALID,998.71,VALID,0,VALID,91.6546,VALID,0,VALID,24.4623,VALID,106,VALID,0,
2011-04-26, 01:14:04,VALID,998.669,VALID,0,VALID,91.647,VALID,0,VALID,24.4428,VALID,106,VALID,0,
2011-04-26, 01:15:04,VALID,998.665,VALID,0,VALID,91.647,VALID,0,VALID,24.4428,VALID,106,VALID,0,
2011-04-26, 01:16:04,VALID,998.66,VALID,0,VALID,91.6623,VALID,0,VALID,24.4233,VALID,106,VALID,0,
2011-04-26, 01:17:04,VALID,998.641,VALID,0,VALID,91.7004,VALID,0,VALID,24.4428,VALID,106,VALID,0,
2011-04-26, 01:18:04,VALID,998.616,VALID,0,VALID,91.6928,VALID,0,VALID,24.4428,VALID,106,VALID,0.00820312,
2011-04-26, 01:19:04,VALID,998.562,VALID,0,VALID,91.6851,VALID,0,VALID,24.4446,VALID,106,VALID,0.312109,
2011-04-26, 01:20:04,VALID,998.573,VALID,0,VALID,91.6699,VALID,0,VALID,24.4251,VALID,106,VALID,0.302344,
2011-04-26, 01:21:04,VALID,998.524,VALID,0,VALID,91.6546,VALID,0,VALID,24.4037,VALID,106,VALID,0.370313,
2011-04-26, 01:22:04,VALID,998.542,VALID,0,VALID,91.647,VALID,0,VALID,24.3842,VALID,106,VALID,0.483203,
2011-04-26, 01:23:04,VALID,998.537,VALID,0,VALID,91.6623,VALID,0,VALID,24.3842,VALID,106,VALID,0.488281,
2011-04-26, 01:24:04,VALID,998.542,VALID,0,VALID,91.647,VALID,0,VALID,24.3842,VALID,106,VALID,0.785156,
2011-04-26, 01:25:04,VALID,998.521,VALID,0,VALID,91.586,VALID,0,VALID,24.3842,VALID,106,VALID,0.901953,
2011-04-26, 01:26:04,VALID,998.484,VALID,0,VALID,91.5402,VALID,0,VALID,24.3842,VALID,106,VALID,0.889453,
2011-04-26, 01:27:04,VALID,998.455,VALID,0,VALID,91.5097,VALID,0,VALID,24.3842,VALID,106,VALID,1.0375,
2011-04-26, 01:28:04,VALID,998.446,VALID,0,VALID,91.4715,VALID,0,VALID,24.3842,VALID,103,VALID,0.824609,
2011-04-26, 01:29:04,VALID,998.404,VALID,0,VALID,91.4181,VALID,0,VALID,24.4037,VALID,103,VALID,0.631641,
2011-04-26, 01:30:04,VALID,998.392,VALID,0,VALID,91.4105,VALID,0,VALID,24.4037,VALID,103,VALID,0.371094,
2011-04-26, 01:31:04,VALID,998.328,VALID,0,VALID,91.4257,VALID,0,VALID,24.4037,VALID,103,VALID,0.346094,
2011-04-26, 01:32:04,VALID,998.337,VALID,0,VALID,91.4334,VALID,0,VALID,24.3842,VALID,103,VALID,0,
2011-04-26, 01:33:04,VALID,998.321,VALID,0,VALID,91.4334,VALID,0,VALID,24.3842,VALID,103,VALID,0,
2011-04-26, 01:34:04,VALID,998.304,VALID,0,VALID,91.441,VALID,0,VALID,24.3647,VALID,103,VALID,0,
2011-04-26, 01:35:04,VALID,998.257,VALID,0,VALID,91.441,VALID,0,VALID,24.3647,VALID,103,VALID,0,
2011-04-26, 01:36:04,VALID,998.294,VALID,0,VALID,91.4944,VALID,0,VALID,24.3452,VALID,103,VALID,0,
2011-04-26, 01:37:04,VALID,998.291,VALID,0,VALID,91.5326,VALID,0,VALID,24.3452,VALID,103,VALID,0,
2011-04-26, 01:38:04,VALID,998.29,VALID,0,VALID,91.5783,VALID,0,VALID,24.3647,VALID,103,VALID,0,
2011-04-26, 01:39:04,VALID,998.301,VALID,0,VALID,91.6012,VALID,0,VALID,24.3452,VALID,103,VALID,0,
2011-04-26, 01:40:04,VALID,998.268,VALID,0,VALID,91.6317,VALID,0,VALID,24.3452,VALID,103,VALID,0,
2011-04-26, 01:41:04,VALID,998.292,VALID,0,VALID,91.6546,VALID,0,VALID,24.347,VALID,103,VALID,0,
2011-04-26, 01:42:04,VALID,998.306,VALID,0,VALID,91.6775,VALID,0,VALID,24.3452,VALID,103,VALID,0,
2011-04-26, 01:43:04,VALID,998.331,VALID,0,VALID,91.6699,VALID,0,VALID,24.3452,VALID,103,VALID,0,
2011-04-26, 01:44:04,VALID,998.291,VALID,0,VALID,91.6699,VALID,0,VALID,24.3062,VALID,103,VALID,0,
2011-04-26, 01:45:04,VALID,998.315,VALID,0,VALID,91.6623,VALID,0,VALID,24.3062,VALID,103,VALID,0,
2011-04-26, 01:46:04,VALID,998.295,VALID,0,VALID,91.6699,VALID,0,VALID,24.3062,VALID,103,VALID,0,
2011-04-26, 01:47:04,VALID,998.326,VALID,0,VALID,91.6775,VALID,0,VALID,24.2866,VALID,103,VALID,0,
2011-04-26, 01:48:04,VALID,998.32,VALID,0,VALID,91.6928,VALID,0,VALID,24.3062,VALID,103,VALID,0,
2011-04-26, 01:49:04,VALID,998.333,VALID,0,VALID,91.7233,VALID,0,VALID,24.3062,VALID,103,VALID,0,
2011-04-26, 01:50:04,VALID,998.342,VALID,0,VALID,91.7538,VALID,0,VALID,24.2866,VALID,103,VALID,0,
2011-04-26, 01:51:04,VALID,998.366,VALID,0,VALID,91.7462,VALID,0,VALID,24.2866,VALID,103,VALID,0,
2011-04-26, 01:52:04,VALID,998.387,VALID,0,VALID,91.7614,VALID,0,VALID,24.3062,VALID,103,VALID,0,
2011-04-26, 01:53:04,VALID,998.367,VALID,0,VALID,91.7614,VALID,0,VALID,24.2866,VALID,103,VALID,0.384766,
2011-04-26, 01:54:04,VALID,998.391,VALID,0,VALID,91.7004,VALID,0,VALID,24.3257,VALID,103,VALID,0.4875,
2011-04-26, 01:55:04,VALID,998.378,VALID,0,VALID,91.6394,VALID,0,VALID,24.3452,VALID,114,VALID,0.676953,
2011-04-26, 01:56:04,VALID,998.381,VALID,0,VALID,91.5173,VALID,0,VALID,24.3647,VALID,143,VALID,0.840625,
2011-04-26, 01:57:04,VALID,998.359,VALID,0,VALID,91.3723,VALID,0,VALID,24.4037,VALID,145,VALID,0.773047,
2011-04-26, 01:58:04,VALID,998.378,VALID,0,VALID,91.174,VALID,0,VALID,24.4428,VALID,145,VALID,0.520312,
2011-04-26, 01:59:04,VALID,998.371,VALID,0,VALID,90.9527,VALID,0,VALID,24.4818,VALID,145,VALID,0.140234,
2011-04-26, 02:00:04,VALID,998.362,VALID,0,VALID,90.7696,VALID,0,VALID,24.4818,VALID,145,VALID,0,
2011-04-26, 02:01:04,VALID,998.346,VALID,0,VALID,90.6094,VALID,0,VALID,24.5013,VALID,145,VALID,0,
2011-04-26, 02:02:04,VALID,998.381,VALID,0,VALID,90.4797,VALID,0,VALID,24.5209,VALID,136,VALID,0,
2011-04-26, 02:03:04,VALID,998.383,VALID,0,VALID,90.3728,VALID,0,VALID,24.4995,VALID,134,VALID,0.420312,
2011-04-26, 02:04:04,VALID,998.395,VALID,0,VALID,90.3042,VALID,0,VALID,24.5599,VALID,123,VALID,0.927344,
2011-04-26, 02:05:04,VALID,998.403,VALID,0,VALID,90.3271,VALID,0,VALID,24.5599,VALID,120,VALID,0.914063,
2011-04-26, 02:06:04,VALID,998.388,VALID,0,VALID,90.3805,VALID,0,VALID,24.5599,VALID,120,VALID,0.998828,
2011-04-26, 02:07:04,VALID,998.444,VALID,0,VALID,90.411,VALID,0,VALID,24.5599,VALID,120,VALID,0.839844,
2011-04-26, 02:08:04,VALID,998.4,VALID,0,VALID,90.4644,VALID,0,VALID,24.5385,VALID,120,VALID,0.778906,
2011-04-26, 02:09:04,VALID,998.378,VALID,0,VALID,90.5026,VALID,0,VALID,24.5599,VALID,121,VALID,1.13164,
2011-04-26, 02:10:04,VALID,998.347,VALID,0,VALID,90.5102,VALID,0,VALID,24.5599,VALID,129,VALID,1.19219,
2011-04-26, 02:11:04,VALID,998.346,VALID,0,VALID,90.5102,VALID,0,VALID,24.5404,VALID,134,VALID,0.874219,
2011-04-26, 02:12:04,VALID,998.313,VALID,0,VALID,90.5178,VALID,0,VALID,24.5404,VALID,134,VALID,1.31758,
2011-04-26, 02:13:04,VALID,998.3,VALID,0,VALID,90.4186,VALID,0,VALID,24.5404,VALID,140,VALID,1.36797,
2011-04-26, 02:14:04,VALID,998.283,VALID,0,VALID,90.3957,VALID,0,VALID,24.5385,VALID,144,VALID,0.946484,
2011-04-26, 02:15:04,VALID,998.257,VALID,0,VALID,90.3576,VALID,0,VALID,24.5385,VALID,140,VALID,1.14961,
2011-04-26, 02:16:04,VALID,998.278,VALID,0,VALID,90.3423,VALID,0,VALID,24.5599,VALID,148,VALID,1.22539,
2011-04-26, 02:17:04,VALID,998.284,VALID,0,VALID,90.4186,VALID,0,VALID,24.5599,VALID,162,VALID,1.43984,
2011-04-26, 02:18:04,VALID,998.267,VALID,0,VALID,90.4797,VALID,0,VALID,24.558,VALID,161,VALID,1.08984,
2011-04-26, 02:19:04,VALID,998.279,VALID,0,VALID,90.617,VALID,0,VALID,24.5775,VALID,172,VALID,0.957812,
2011-04-26, 02:20:04,VALID,998.304,VALID,0,VALID,90.762,VALID,0,VALID,24.5971,VALID,167,VALID,1.17031,
2011-04-26, 02:21:04,VALID,998.288,VALID,0,VALID,90.7085,VALID,0,VALID,24.6184,VALID,166,VALID,1.20898,
2011-04-26, 02:22:04,VALID,998.308,VALID,0,VALID,90.7467,VALID,0,VALID,24.638,VALID,174,VALID,1.17578,
2011-04-26, 02:23:04,VALID,998.285,VALID,0,VALID,90.7467,VALID,0,VALID,24.638,VALID,186,VALID,1.46211,
2011-04-26, 02:24:04,VALID,998.294,VALID,0,VALID,90.6628,VALID,0,VALID,24.6575,VALID,184,VALID,1.41641,
2011-04-26, 02:25:04,VALID,998.285,VALID,0,VALID,90.5483,VALID,0,VALID,24.677,VALID,186,VALID,1.47969,
2011-04-26, 02:26:04,VALID,998.266,VALID,0,VALID,90.4568,VALID,0,VALID,24.6751,VALID,192,VALID,1.20781,
2011-04-26, 02:27:04,VALID,998.257,VALID,0,VALID,90.4797,VALID,0,VALID,24.716,VALID,199,VALID,0.949219,
2011-04-26, 02:28:04,VALID,998.274,VALID,0,VALID,90.5102,VALID,0,VALID,24.716,VALID,192,VALID,1.23164,
2011-04-26, 02:29:04,VALID,998.283,VALID,0,VALID,90.472,VALID,0,VALID,24.7356,VALID,183,VALID,1.07187,
2011-04-26, 02:30:04,VALID,998.303,VALID,0,VALID,90.472,VALID,0,VALID,24.7551,VALID,198,VALID,0.325391,
2011-04-26, 02:31:04,VALID,998.324,VALID,0,VALID,90.4263,VALID,0,VALID,24.6946,VALID,199,VALID,0.515625,
2011-04-26, 02:32:04,VALID,998.366,VALID,0,VALID,90.2431,VALID,0,VALID,24.6965,VALID,199,VALID,0.359766,
2011-04-26, 02:33:04,VALID,998.407,VALID,0.5,VALID,90.2431,VALID,0,VALID,24.677,VALID,167,VALID,0,
2011-04-26, 02:34:04,VALID,998.418,VALID,0,VALID,90.3194,VALID,0,VALID,24.6965,VALID,121,VALID,0.564844,
2011-04-26, 02:35:04,VALID,998.403,VALID,0,VALID,90.4339,VALID,0,VALID,24.677,VALID,93,VALID,0.891016,
2011-04-26, 02:36:04,VALID,998.383,VALID,0,VALID,90.5178,VALID,0,VALID,24.6789,VALID,75,VALID,0.786328,
2011-04-26, 02:37:04,VALID,998.387,VALID,0,VALID,90.5865,VALID,0,VALID,24.6166,VALID,75,VALID,0.608984,
2011-04-26, 02:38:04,VALID,998.352,VALID,0,VALID,90.6857,VALID,0,VALID,24.6184,VALID,75,VALID,0.388281,
2011-04-26, 02:39:04,VALID,998.345,VALID,0,VALID,90.7391,VALID,0,VALID,24.5794,VALID,75,VALID,0,
2011-04-26, 02:40:04,VALID,998.377,VALID,0,VALID,90.8154,VALID,0,VALID,24.5794,VALID,75,VALID,0,
2011-04-26, 02:41:04,VALID,998.4,VALID,0,VALID,90.9069,VALID,0,VALID,24.5599,VALID,75,VALID,0,
2011-04-26, 02:42:04,VALID,998.348,VALID,0,VALID,90.9832,VALID,0,VALID,24.5404,VALID,75,VALID,0,
2011-04-26, 02:43:04,VALID,998.338,VALID,0,VALID,91.0061,VALID,0,VALID,24.5209,VALID,75,VALID,0,
2011-04-26, 02:44:04,VALID,998.344,VALID,0,VALID,91.0824,VALID,0,VALID,24.5209,VALID,75,VALID,0,
2011-04-26, 02:45:04,VALID,998.321,VALID,0,VALID,91.09,VALID,0,VALID,24.5013,VALID,75,VALID,0,
2011-04-26, 02:46:04,VALID,998.333,VALID,0,VALID,91.1129,VALID,0,VALID,24.4818,VALID,75,VALID,0,
2011-04-26, 02:47:04,VALID,998.312,VALID,0,VALID,91.1663,VALID,0,VALID,24.48,VALID,75,VALID,0,
2011-04-26, 02:48:04,VALID,998.332,VALID,0,VALID,91.2121,VALID,0,VALID,24.5013,VALID,75,VALID,0,
2011-04-26, 02:49:04,VALID,998.347,VALID,0,VALID,91.2503,VALID,0,VALID,24.4604,VALID,75,VALID,0,
2011-04-26, 02:50:04,VALID,998.331,VALID,0,VALID,91.2655,VALID,0,VALID,24.4818,VALID,75,VALID,0,
2011-04-26, 02:51:04,VALID,998.337,VALID,0,VALID,91.3113,VALID,0,VALID,24.4818,VALID,75,VALID,0.341406,
2011-04-26, 02:52:04,VALID,998.351,VALID,0,VALID,91.3571,VALID,0,VALID,24.4818,VALID,13,VALID,0.616406,
2011-04-26, 02:53:04,VALID,998.375,VALID,0,VALID,91.3876,VALID,0,VALID,24.5013,VALID,12,VALID,0.476563,
2011-04-26, 02:54:04,VALID,998.37,VALID,0,VALID,91.4334,VALID,0,VALID,24.5013,VALID,337,VALID,0.517969,
2011-04-26, 02:55:04,VALID,998.387,VALID,0,VALID,91.5173,VALID,0,VALID,24.5209,VALID,331,VALID,0.645703,
2011-04-26, 02:56:04,VALID,998.375,VALID,0,VALID,91.5478,VALID,0,VALID,24.5209,VALID,331,VALID,0.727734,
2011-04-26, 02:57:04,VALID,998.429,VALID,0,VALID,91.6317,VALID,0,VALID,24.5209,VALID,331,VALID,0.528516,
2011-04-26, 02:58:04,VALID,998.467,VALID,0,VALID,91.6623,VALID,0,VALID,24.5209,VALID,331,VALID,0,
2011-04-26, 02:59:04,VALID,998.456,VALID,0,VALID,91.7157,VALID,0,VALID,24.5209,VALID,331,VALID,0,
2011-04-26, 03:00:04,VALID,998.492,VALID,0,VALID,91.7614,VALID,0,VALID,24.5209,VALID,331,VALID,0,
2011-04-26, 03:01:04,VALID,998.492,VALID,0,VALID,91.7767,VALID,0,VALID,24.5209,VALID,331,VALID,0,
2011-04-26, 03:02:04,VALID,998.542,VALID,0,VALID,91.8225,VALID,0,VALID,24.5404,VALID,331,VALID,0,
2011-04-26, 03:03:04,VALID,998.554,VALID,0,VALID,91.853,VALID,0,VALID,24.5209,VALID,331,VALID,0,
2011-04-26, 03:04:04,VALID,998.552,VALID,0,VALID,91.8911,VALID,0,VALID,24.5209,VALID,331,VALID,0,
2011-04-26, 03:05:04,VALID,998.537,VALID,0,VALID,91.9217,VALID,0,VALID,24.5209,VALID,45,VALID,0.622656,
2011-04-26, 03:06:04,VALID,998.571,VALID,0,VALID,91.9522,VALID,0,VALID,24.5404,VALID,57,VALID,0.364453,
2011-04-26, 03:07:04,VALID,998.567,VALID,0,VALID,91.998,VALID,0,VALID,24.5404,VALID,57,VALID,0.327344,
2011-04-26, 03:08:04,VALID,998.556,VALID,0,VALID,92.0361,VALID,0,VALID,24.519,VALID,57,VALID,0.114063,
2011-04-26, 03:09:04,VALID,998.576,VALID,0,VALID,92.0361,VALID,0,VALID,24.5209,VALID,57,VALID,0.180078,
2011-04-26, 03:10:04,VALID,998.549,VALID,0,VALID,92.0437,VALID,0,VALID,24.5404,VALID,57,VALID,0.129297,
2011-04-26, 03:11:04,VALID,998.556,VALID,0,VALID,92.0437,VALID,0,VALID,24.5209,VALID,57,VALID,0.280859,
2011-04-26, 03:12:04,VALID,998.55,VALID,0,VALID,92.0514,VALID,0,VALID,24.519,VALID,57,VALID,0.455078,
2011-04-26, 03:13:04,VALID,998.52,VALID,0,VALID,92.0132,VALID,0,VALID,24.5209,VALID,57,VALID,0.442969,
2011-04-26, 03:14:04,VALID,998.521,VALID,0,VALID,91.9903,VALID,0,VALID,24.4995,VALID,57,VALID,0.408984,
2011-04-26, 03:15:04,VALID,998.532,VALID,0,VALID,92.0056,VALID,0,VALID,24.5209,VALID,57,VALID,0.450781,
2011-04-26, 03:16:04,VALID,998.515,VALID,0,VALID,91.9827,VALID,0,VALID,24.5209,VALID,57,VALID,0.278516,
2011-04-26, 03:17:04,VALID,998.505,VALID,0,VALID,91.9598,VALID,0,VALID,24.5209,VALID,57,VALID,0.401172,
2011-04-26, 03:18:04,VALID,998.501,VALID,0,VALID,91.9598,VALID,0,VALID,24.5209,VALID,57,VALID,0.165234,
2011-04-26, 03:19:04,VALID,998.503,VALID,0,VALID,91.9751,VALID,0,VALID,24.5209,VALID,57,VALID,0,
2011-04-26, 03:20:04,VALID,998.501,VALID,0,VALID,91.9903,VALID,0,VALID,24.519,VALID,57,VALID,0,
2011-04-26, 03:21:04,VALID,998.474,VALID,0,VALID,92.0056,VALID,0,VALID,24.519,VALID,57,VALID,0.00195313,
2011-04-26, 03:22:04,VALID,998.521,VALID,0,VALID,92.0285,VALID,0,VALID,24.5385,VALID,57,VALID,0.527734,
2011-04-26, 03:23:04,VALID,998.522,VALID,0,VALID,92.0132,VALID,0,VALID,24.519,VALID,20,VALID,0.83125,
2011-04-26, 03:24:04,VALID,998.525,VALID,0,VALID,92.0361,VALID,0,VALID,24.5599,VALID,18,VALID,0.788281,
2011-04-26, 03:25:04,VALID,998.522,VALID,0,VALID,92.0514,VALID,0,VALID,24.519,VALID,18,VALID,0.773047,
2011-04-26, 03:26:04,VALID,998.536,VALID,0,VALID,92.059,VALID,0,VALID,24.4995,VALID,18,VALID,0.727344,
2011-04-26, 03:27:04,VALID,998.518,VALID,0,VALID,92.0743,VALID,0,VALID,24.5209,VALID,18,VALID,0.567969,
2011-04-26, 03:28:04,VALID,998.55,VALID,0,VALID,92.12,VALID,0,VALID,24.5209,VALID,18,VALID,0.394141,
2011-04-26, 03:29:04,VALID,998.538,VALID,0,VALID,92.1353,VALID,0,VALID,24.5404,VALID,18,VALID,0.414844,
2011-04-26, 03:30:04,VALID,998.57,VALID,0,VALID,92.1506,VALID,0,VALID,24.5209,VALID,48,VALID,0.532031,
2011-04-26, 03:31:04,VALID,998.533,VALID,0,VALID,92.1963,VALID,0,VALID,24.4995,VALID,88,VALID,1.05508,
2011-04-26, 03:32:04,VALID,998.563,VALID,0,VALID,92.2192,VALID,0,VALID,24.5404,VALID,88,VALID,1.21016,
2011-04-26, 03:33:04,VALID,998.573,VALID,0,VALID,92.2726,VALID,0,VALID,24.5404,VALID,88,VALID,1.04258,
2011-04-26, 03:34:04,VALID,998.591,VALID,0,VALID,92.2726,VALID,0,VALID,24.5404,VALID,71,VALID,1.22969,
2011-04-26, 03:35:04,VALID,998.59,VALID,0,VALID,92.2955,VALID,0,VALID,24.5404,VALID,75,VALID,1.2375,
2011-04-26, 03:36:04,VALID,998.577,VALID,0,VALID,92.3184,VALID,0,VALID,24.5209,VALID,65,VALID,1.04062,
2011-04-26, 03:37:04,VALID,998.599,VALID,0.5,VALID,92.3718,VALID,0,VALID,24.5209,VALID,63,VALID,1.22422,
2011-04-26, 03:38:04,VALID,998.607,VALID,0,VALID,92.41,VALID,0,VALID,24.5013,VALID,64,VALID,1.26328,
2011-04-26, 03:39:04,VALID,998.603,VALID,0,VALID,92.4481,VALID,0,VALID,24.4818,VALID,60,VALID,1.04727,
2011-04-26, 03:40:04,VALID,998.627,VALID,0,VALID,92.5015,VALID,0,VALID,24.4818,VALID,50,VALID,1.07344,
2011-04-26, 03:41:04,VALID,998.622,VALID,0,VALID,92.532,VALID,0,VALID,24.4623,VALID,46,VALID,1.075,
2011-04-26, 03:42:04,VALID,998.632,VALID,0,VALID,92.5702,VALID,0,VALID,24.4409,VALID,39,VALID,1.13828,
2011-04-26, 03:43:04,VALID,998.656,VALID,0.5,VALID,92.6312,VALID,0,VALID,24.4623,VALID,36,VALID,1.1832,
2011-04-26, 03:44:04,VALID,998.649,VALID,0,VALID,92.6694,VALID,0,VALID,24.4428,VALID,29,VALID,1.56641,
2011-04-26, 03:45:04,VALID,998.661,VALID,0,VALID,92.6923,VALID,0,VALID,24.4037,VALID,37,VALID,1.74609,
2011-04-26, 03:46:04,VALID,998.688,VALID,0,VALID,92.7151,VALID,0,VALID,24.4037,VALID,35,VALID,1.0875,
2011-04-26, 03:47:04,VALID,998.679,VALID,0,VALID,92.7685,VALID,0,VALID,24.4037,VALID,31,VALID,1.18789,
2011-04-26, 03:48:04,VALID,998.684,VALID,0,VALID,92.7685,VALID,0,VALID,24.3824,VALID,28,VALID,1.66641,
2011-04-26, 03:49:04,VALID,998.687,VALID,0,VALID,92.7914,VALID,0,VALID,24.3842,VALID,27,VALID,1.8832,
2011-04-26, 03:50:04,VALID,998.714,VALID,0.5,VALID,92.7914,VALID,0,VALID,24.3629,VALID,13,VALID,2.03672,
2011-04-26, 03:51:04,VALID,998.741,VALID,0,VALID,92.8296,VALID,0,VALID,24.3238,VALID,14,VALID,1.53437,
2011-04-26, 03:52:04,VALID,998.761,VALID,0,VALID,92.8296,VALID,0,VALID,24.3257,VALID,28,VALID,1.66523,